Погода в Амбролаури

Погода в Амбролаури : погода сейчас, прогноз погоды и архив. Всё, что Вы хотите узнать о погоде в Амбролаури!

Поиск расширенной информации на нашем сайте:

Другие новости

Новости СМИ2

Главная страница сайта

Новости сайта

02.10.2013

Напоминаем, что на нашем новом сайте вы можете получить высокодетализированные прогнозы погоды по пунктам России, СНГ и мира (включающие важные для авиации метеовеличины, такие как направление и скорость ветра, видимость, явления погоды, количество и форма облачности, нижняя и верхняя граница облачности), а также ознакомиться с разнообразными материалами по авиационной метеорологии и подборкой полезных ссылок на эту тему.

Сайт Метеоцентр.Азия посвящён разработке технологий оптимизации авиаметеорологического обслуживания, включая проектирование и перспективное создание нескольких автоматизированных авиаметеорологических систем:
- система выпуска высокодетальных прогностических карт явлений погоды для нижнего воздушного пространства по России и ближнему зарубежью;
- система верификации прогнозов TAF (выпускаемых синоптиками официальных АМСГ РФ и ближнего зарубежья) и AUTOTAF (выпускаемых сайтом Метеоцентр.Азия) - выявление ошибок, онлайн-сопоставление с фактической погодой METAR, автоматическое внесение коррективов в прогнозы при резком отклонении фактической погоды от прогноза, подсчёт оправдываемости прогнозов по элементам и в целом;
- система обработки, анализа и отображения авиаметеорологической информации для применения провайдерами метеорологической информации.

Рекомендуем: Гербалайф белковые батончики.

Погода в Амбролаури - сегодня

Время (UTC), дата Ветер
(°,м/с) 
Видим.   Явления Облачность Т
(°С)
Тd
(°С)
f(%) Тe
(°С)
Pmin
(гПа)
dP
(гПа)
Po
(мм)
O2
(г/м3)
Тmin Tmax R s Состояние
почвы
15 21.03.17 270 (З) 7-7{09}  н/о    н/о 
+5.3 -2.6 57 +3  1017.3  1.1  714  282    +7.6       
18 21.03.17 270 (З) 6-6{07}  н/о    н/о 
+4.4 -3.7 56 +2  1018.9  1.3  715  284    +7.6     
21 21.03.17 260 (З) 2-2{02}  н/о    н/о 
+3.5 -0.7 74 +3  1019.2  0.2  715  284           
00 22.03.17 тихо () -0{00}  н/о    н/о 
+2.5 -0.7 79 +3  1019.4  0.1  715  285         
03 22.03.17 060 (СВ) 1-0{01}  н/о    н/о 
+0.4 -3 78 +1  1020.5  0.6  715  288           
06 22.03.17 270 (З) 1-1{01}  н/о    н/о 
+3.6 -1.7 68 +4  1020.8  716  285  +0.3       
09 22.03.17 260 (З) 5-4{05}  н/о    н/о 
+8.1 -4.2 41 +7  1018.9  -0.8  715  280           
12 22.03.17 290 (З) 7-7{08}  н/о    н/о 
+6.2 -0.8 61 +4  1019.9  0.5  716  282         
15 22.03.17 270 (З) 7-7{09}  н/о    н/о 
+5.9 -2.8 54 +3  1020.4  0.4  716  283    +9.8       
18 22.03.17 280 (З) 2-1{04}  н/о    н/о 
+4.8 -1.4 64 +4  1022  1.3  717  284    +9.8     
21 22.03.17 170 (Ю) 1-0{01}  н/о    н/о 
+3.3 -0.8 74 +4  1023.1  0.6  717  286           
00 23.03.17 270 (З) 2-1{02}  н/о    н/о 
+2 -1.5 78 +1  1023.5  0.1  717  287         
03 23.03.17 090 (В) 3-3{03}  н/о    н/о 
-0.4 -3.3 81 -2  1024.9  0.7  718  290           
06 23.03.17 230 (ЮЗ) 2-1{01}  н/о    н/о 
+4.4 -3.2 58 +4  1023.8  0.1  718  285  -1.3      70   
09 23.03.17 230 (ЮЗ) 4-4{04}  н/о    н/о 
+10.4 -4.4 35 +10  1020.7  -1.5  717  279           
15 23.03.17 260 (З) 5-4{07}  н/о    н/о 
+10 -1.5 45 +9  1021.4  1.2  717  279    +13.1       
18 23.03.17 160 (Ю) 1-0{00}  н/о    н/о 
+3.2 -1.3 72 +4  1025.9  2.7  719  287    +13.1     
21 23.03.17 110 (В) 2-1{02}  н/о    н/о 
+1.7 -1.1 82 +1  1027.7  1.3  720  288           
00 24.03.17 250 (З) 1-1{01}  н/о    н/о 
+1.6 -0.5 86 +2  1027.6  0.1  720  288         
03 24.03.17 060 (СВ) 1-0{01}  н/о    н/о 
+0.3 -0.9 92 +1  1027.8  0.1  720  290           
06 24.03.17 250 (З) 2-1{01}  н/о    н/о 
+4.7 -0.7 68 +4  1027  0.2  720  285  -0.4       
09 24.03.17 280 (З) 5-4{05}  н/о    н/о 
+11.9 -0.5 42 +11  1023.2  -1.9  719  277           
15 24.03.17 270 (З) 6-5{06}  н/о    н/о 
+13.6 +1.7 44 +13  1021.4  0.3  718  275    +16.2       
18 24.03.17 140 (ЮВ) 1-0{02}  н/о    н/о 
+5 +1.3 77 +6  1025.4  1.8  719  284    +16.2     
21 24.03.17 110 (В) 2-1{03}  н/о    н/о 
+2.7 +0.3 84 +2  1025.4  -0.6  719  287           
Время (UTC), дата Ветер
(°,м/с) 
Видим.   Явления Облачность Т
(°С)
Тd
(°С)
f(%) Тe
(°С)
Pmin
(гПа)
dP
(гПа)
Po
(мм)
O2
(г/м3)
Тmin Tmax R s Состояние
почвы

Для получения пояснительной информации подведите курсор к названию столбца.

ПОГОДА в Амбролаури - архив

Всё, что Вы хотите узнать о погоде в Амбролаури - удобно и подробно!

Выберите нужную дату (начиная с 1 января 2015* года) и нажмите кнопку "Найти".
Будут отображены архивные сводки погоды по пункту Амбролаури, начиная с указанной даты.


Отображать данные в формате CSV (для использования в таблицах Excel)


Внимание! Наш архив погоды предназначен исключительно для личного некоммерческого использования в познавательных целях. Если Вам необходимы официальные справки о состоянии погоды (для производственных, юридических, коммерческих и т.п. целей), обращайтесь в органы Росгидромета.

*Примечание: данная дата относится к архиву по метеостанциям СССР (Россия, СНГ, Балтия).
Архив по метеостанциям Зарубежной Европы и Азии (кроме Китая) хранится 10 дней, по другим регионам земного шара (Китай, Африка, Америка, Австралия, Океания) - 1 день.

Амбролаури - район местоположения метеостанции


Название, широта, долгота, высота метеостанции:
Амбролаури 42.5°ш. 43.2°д. 544 м над ур. моря [Грузия]

Дополнительная информация

В oтличие oт бoльшинства пoгoдных сайтoв мы публикуем пoдрoбную метеoинфoрмацию в детальнoм прoфессиoнальнoм фoрмате.

Характеристики температуры и влажнoсти вoздуха измеряются на высoте 2 м в тени вдали oт зданий и деревьев.
Скoрoсть ветра измеряется на высoте 10 м (на урoвне рoста челoвека скoрoсть ветра ниже в 1.5-2 раза). Если метеoстанция нахoдится в гoрoде или в лесу, тo скoрoсть ветра занижена на 2-4 м/с пo сравнению с oткрытым местoм. Скoрoсть ветра над акватoриями крупных рек и oзёр, а также на вершинах хoлмoв на 2-5 м/с выше, чем в oбычных услoвиях.
Атмoсфернoе давление в разных тoчках местнoсти мoжет значительнo oтличаться oт давления на метеoстанции, в зависимoсти oт услoвий рельефа (при пoдъёме на 10 м давление пoнижается примернo на 1 мм рт.ст.).